JAWSAT

Satellite information

Favourite Embed

Satellite Type and Status

PAYLOADIN ORBIT

Key statistics

Satellite JAWSAT at a glance.

Uptime

9231

Days in orbit

Revolutions

≈ 14.4

Per day

Orbit

SSO

Sun Synchronous Orbit

Inclination

100.2

Latest

Satellite identification and parameters

Extended collection of information and parameters for JAWSAT.

Object identification

Identified? True

Debris? False

Object name: JAWSAT

International designator: 2000-004A

Object number (NORAD): 26061

Object ID (CCSDS): 26061

Country: UNITED STATES OF AMERICA (US)

Current information (Y/N): Y

RCS size: MEDIUM

Orbital parameters

Period: 99.698 minutes

Inclination: 100.1888 deg

SMA: 7122.246 km

Apoapsis: 766.656 km

Periapsis: 721.566 km

RAAN: 44.7208 deg

Eccentricy: 0.0031654

Argument of periapsis: 315.7106 deg

Mean anomaly: 44.1546 deg

Mean motion: 14.44366211 rev/day

Mean motion (dot): 0.00001034 rev/day2

B* drag term: 0.000316 1/REarth

Two-line elements (TLE)

Creation date: May 6, 2025, 3:54 a.m.

Reference frame: TEME

Reference center: EARTH

Epoch: May 5, 2025, 3:58 p.m. UTC

TLE line 0: 0 JAWSAT

TLE line 1: 1 26061U 00004A 25125.66574891 .00001034 00000-0 31600-3 0 9991

TLE line 2: 2 26061 100.1888 44.7208 0031654 315.7106 44.1546 14.44366211328087

Live tracking on map

Real-time ground track for satellite JAWSAT.

In-orbit conjunctions

A list of the most updated potential collisions computed for object JAWSAT.

Target Orbit TCA Probability of collision Miss distance Type
FENGYUN 1C DEB SSO 2025-03-01 09:03:45 0.001101456 114.0 (m) DEBRIS
GAOFEN 3 DEB SSO 2024-11-28 20:21:11 0.0002206355 511.0 (m) DEBRIS
IRIDIUM 33 DEB LEO 2024-11-03 06:06:51 0.0001077386 438.0 (m) DEBRIS
NOAA 17 DEB SSO 2024-10-01 18:31:33 0.00043357 513.0 (m) DEBRIS
FENGYUN 1C DEB SSO 2024-09-06 12:53:07 0.0001865174 997.0 (m) DEBRIS

Associated space launch

The JAWSAT (Joint Air Force Academy / Weber State University Satellite) project was developed by students working alongside aerospace professionals. Initially designed with a pulsed-plasma thruster to train Air Force Academy cadets (see JAWSAT), the mission has since evolved to include the efforts of several universities, local aerospace companies, the Air Force Academy, the Air Force Research Laboratory, and NASA. Utilizing breakthrough technologies, JAWSAT deployed four satellites when it reached orbit. The onboard imaging system recorded the deployment of each payload with its six digital cameras. The first free-flying Academy satellite, FalconSat-1 carried the CHAWS (Charging Hazards and Wake Studies) experiment developed by the Physics Department at the Academy.

JAWSAT was lifted into orbit during the mission ‘Minotaur I | JAWSAT & FalconSat 1’, on board a Minotaur I space rocket.

The launch took place on Jan. 27, 2000, 3:03 a.m. from Space Launch Complex 8.

For more information about the launch, click the button.

Launch to space Minotaur I | JAWSAT & FalconSat 1
Minotaur I | JAWSAT & FalconSat 1

Agency: N/A

Status: Launch Successful

Launch date: Jan. 27, 2000, 3:03 a.m. UTC

Rocket: Minotaur I

Launch pad: Space Launch Complex 8

Location: Vandenberg SFB, CA, USA

...

Latest news about this satellite

There are no fresh news available about this satellite. Check back as we update our databases every day.


Newsletter sign-up

Weekly statistics, charts and insights to help you stay on top of the space industry.